Hourly Weather Roundup
Issued by NWS Central Illinois

Home | Current Version | Previous Version | Text Only | Print | Product List | Glossary On
Versions: 1 2 3 4 5 6 7 8 9 10 11 12 13 14 15 16 17 18 19 20 21 22 23 24 25 26 27 28 29 30 31 32 33 34 35 36 37 38 39 40 41 42 43 44 45 46 47 48 49 50
000
NZUS43 KILX 171110
HWRILX

AREA WEATHER ROUNDUP
NATIONAL WEATHER SERVICE, LINCOLN IL
500 AM CST WED DEC 17 2014


CITY           SKY/WX    TMP DP  RH WIND       PRES   REMARKS
BLOOMINGTON    CLOUDY    21  18  88 W8        30.27S WCI  11
CHAMPAIGN      CLOUDY    24  19  81 NW13      30.27R WCI  12
DECATUR        CLOUDY    24  19  81 NW13      30.29R WCI  12
FLORA          MOCLDY    30  24  79 NW12      30.30S WCI  20
GALESBURG      CLOUDY    19  16  86 NW12      30.30S WCI   7
JACKSONVILLE   CLOUDY    28  22  78 NW8       30.30S WCI  20
LACON          CLOUDY    22  16  77 W8        30.29R WCI  12
LAWRENCEVILLE  CLOUDY    30  23  75 NW9       30.29S WCI  22
LITCHFIELD     CLOUDY    28  22  78 NW12G18   30.30R WCI  17
$$


CITY           SKY/WX    TMP DP  RH WIND       PRES   REMARKS
LINCOLN        CLOUDY    25  19  80 W8        30.31S WCI  16
MACOMB         CLOUDY    20  17  86 NW9       30.33S WCI   9
MATTOON        CLOUDY    25  20  81 NW16      30.27S WCI  12
MT CARMEL AP   CLOUDY    32  27  80 NW10      30.29S WCI  24
OLNEY-NOBLE AP CLOUDY    30  25  80 NW8       30.30R WCI  23
PARIS          CLOUDY    26  23  90 W14       30.28S WCI  14
PEORIA         CLOUDY    22  14  71 NW8G17    30.30S WCI  12
PONTIAC        CLOUDY    25  21  86 W15       30.27R WCI  12
RANTOUL        CLOUDY    25  21  85 NW12G20   30.26S WCI  14
ROBINSON       CLOUDY    28  24  84 NW9       30.30S WCI  20
SPRINGFIELD    CLOUDY    26  19  74 NW10      30.30S WCI  16
TAYLORVILLE    CLOUDY    27  21  80 NW12G18   30.29S WCI  16
$$

...REGIONAL REPORTS...


CITY           SKY/WX    TMP DP  RH WIND       PRES   REMARKS
CHICAGO O`HARE CLOUDY    26  20  77 NW12      30.19R WCI  16
KANKAKEE       CLOUDY    27  23  85 W15       30.23R WCI  15
MOLINE         CLOUDY    22  15  75 W9        30.29S WCI  12
MOUNT VERNON   CLOUDY    30  21  69 NW5       30.31R WCI  25
PITTSFIELD     CLOUDY    27  22  80 NW10      30.32R WCI  18
QUINCY         CLOUDY    25  19  78 NW8       30.31R WCI  16
ROCKFORD       CLOUDY    24  17  74 NW12      30.24R WCI  13
$$


CITY           SKY/WX    TMP DP  RH WIND       PRES   REMARKS
BURLINGTON     CLOUDY    19  14  81 NW7       30.32R WCI  10
CEDAR RAPIDS   CLOUDY    19  15  84 NW15      30.29R WCI   5
DES MOINES     PTCLDY    15   9  76 NW9       30.34S WCI   3
KIRKSVILLE     CLOUDY    24  20  84 N6        30.31S WCI  17
OTTUMWA        CLOUDY    17  11  77 NW10      30.32S WCI   5
ST LOUIS       MOCLDY    31  22  69 W8        30.32R WCI  23
$$


CITY           SKY/WX    TMP DP  RH WIND       PRES   REMARKS
TERRE HAUTE    CLOUDY    27  22  81 W8        30.27S WCI  19
EVANSVILLE     CLOUDY    33  25  72 NW7       30.30R WCI  27
INDIANAPOLIS   CLOUDY    27  23  85 NW12      30.21S WCI  17
LAFAYETTE      CLOUDY    26  23  88 W12       30.23R WCI  16
MADISON        CLOUDY    24  16  71 NW7       30.18S WCI  16
MILWAUKEE      CLOUDY    27  16  63 NW15G24   30.15R WCI  15
$$




USA.gov is the U.S. government's official web portal to all federal, state and local government web resources and services.